| time (UTC) | temp F | wind direction | speed MPH | gust MPH | rain 1hr in | rain 24hr in | rain mn in | humidity % | barometer mb |
| 20260903104144 | 76 | 118 | 2.0 | 6.0 | 0.00 | 0.00 | 0.00 | 56 | 1019.3 |
| 20260903103531 | 75 | 101 | 2.0 | 5.0 | 0.00 | 0.00 | 0.00 | 56 | 1019.4 |
| 20260903102531 | 75 | 124 | 3.0 | 6.0 | 0.00 | 0.00 | 0.00 | 55 | 1019.9 |
| 20260903101144 | 74 | 134 | 3.0 | 6.0 | 0.00 | 0.00 | 0.00 | 57 | 1020.0 |
| 20260903100531 | 74 | 126 | 4.0 | 7.0 | 0.00 | 0.00 | 0.00 | 58 | 1020.0 |
| 20260903095531 | 73 | 195 | 2.0 | 5.0 | 0.00 | 0.00 | 0.00 | 61 | 1020.3 |
| 20260903094143 | 73 | 135 | 3.0 | 5.0 | 0.00 | 0.00 | 0.00 | 62 | 1020.5 |
| 20260903093531 | 73 | 160 | 2.0 | 6.0 | 0.00 | 0.00 | 0.00 | 62 | 1020.6 |
| 20260903091144 | 71 | 87 | 2.0 | 5.0 | 0.00 | 0.00 | 0.00 | 64 | 1021.1 |
| 20260903090531 | 72 | 252 | 1.0 | 6.0 | 0.00 | 0.00 | 0.00 | 63 | 1021.0 |
| 20260903085530 | 71 | 328 | 2.0 | 8.0 | 0.00 | 0.00 | 0.00 | 65 | 1021.4 |
| 20260903084143 | 70 | 318 | 4.0 | 8.0 | 0.00 | 0.00 | 0.00 | 68 | 1021.5 |
| 20260903083531 | 70 | 258 | 2.0 | 6.0 | 0.00 | 0.00 | 0.00 | 66 | 1021.5 |
| 20260903082531 | 70 | 247 | 3.0 | 7.0 | 0.00 | 0.00 | 0.00 | 69 | 1021.5 |
| 20260903081144 | 69 | 235 | 1.0 | 6.0 | 0.00 | 0.00 | 0.00 | 69 | 1021.6 |
| 20260903080531 | 69 | 305 | 4.0 | 8.0 | 0.00 | 0.00 | 0.00 | 71 | 1021.8 |
| 20260903075531 | 69 | 284 | 4.0 | 10.0 | 0.00 | 0.00 | 0.00 | 71 | 1021.9 |
| 20260903074144 | 68 | 283 | 1.0 | 6.0 | 0.00 | 0.00 | 0.00 | 73 | 1022.0 |
| 20260903073530 | 67 | 249 | 1.0 | 8.0 | 0.00 | 0.00 | 0.00 | 75 | 1022.0 |
| 20260903072530 | 65 | 205 | 3.0 | 6.0 | 0.00 | 0.00 | 0.00 | 80 | 1022.4 |
| 20260903071144 | 65 | 243 | 4.0 | 9.0 | 0.00 | 0.00 | 0.00 | 79 | 1022.3 |
| 20260903070531 | 65 | 280 | 3.0 | 9.0 | 0.00 | 0.00 | 0.00 | 78 | 1022.4 |
| 20260903065531 | 64 | 246 | 2.0 | 8.0 | 0.00 | 0.00 | 0.00 | 82 | 1022.6 |
| 20260903064143 | 64 | 247 | 3.0 | 6.0 | 0.00 | 0.00 | 0.00 | 83 | 1022.6 |
| 20260903063530 | 63 | 223 | 5.0 | 8.0 | 0.00 | 0.00 | 0.00 | 85 | 1022.7 |
| 20260903062531 | 63 | 239 | 4.0 | 8.0 | 0.00 | 0.00 | 0.00 | 86 | 1022.5 |
| 20260903061144 | 63 | 230 | 3.0 | 5.0 | 0.00 | 0.00 | 0.00 | 87 | 1022.5 |
| 20260903060531 | 61 | 204 | 3.0 | 6.0 | 0.00 | 0.00 | 0.00 | 90 | 1022.5 |
| 20260903055530 | 62 | 248 | 2.0 | 5.0 | 0.00 | 0.00 | 0.00 | 88 | 1022.4 |
| 20260903054143 | 62 | 258 | 2.0 | 6.0 | 0.00 | 0.00 | 0.00 | 89 | 1022.4 |
| 20260903053531 | 61 | 284 | 3.0 | 9.0 | 0.00 | 0.00 | 0.00 | 91 | 1022.5 |
| 20260903052531 | 60 | 212 | 3.0 | 8.0 | 0.00 | 0.00 | 0.00 | 94 | 1022.3 |
| 20260903051144 | 60 | 211 | 4.0 | 6.0 | 0.00 | 0.00 | 0.00 | 94 | 1022.3 |
| 20260903050530 | 60 | 225 | 1.0 | 4.0 | 0.00 | 0.00 | 0.00 | 93 | 1022.3 |
| 20260903045531 | 60 | 318 | 4.0 | 8.0 | 0.00 | 0.00 | 0.00 | 93 | 1022.3 |
| 20260903044143 | 60 | 283 | 3.0 | 6.0 | 0.00 | 0.00 | 0.00 | 92 | 1022.0 |
| 20260903043530 | 60 | 237 | 3.0 | 6.0 | 0.00 | 0.00 | 0.00 | 93 | 1022.0 |
| 20260903042531 | 61 | 234 | 3.0 | 7.0 | 0.00 | 0.00 | 0.00 | 92 | 1021.9 |
| 20260903041143 | 61 | 214 | 3.0 | 6.0 | 0.00 | 0.00 | 0.00 | 93 | 1021.9 |
| 20260903040531 | 61 | 212 | 3.0 | 8.0 | 0.00 | 0.00 | 0.00 | 93 | 1021.8 |
| 20260903035531 | 61 | 233 | 4.0 | 7.0 | 0.00 | 0.00 | 0.00 | 93 | 1021.8 |
| 20260903034530 | 61 | 267 | 3.0 | 8.0 | 0.00 | 0.00 | 0.00 | 92 | 1021.7 |
| 20260903033530 | 61 | 207 | 3.0 | 7.0 | 0.00 | 0.00 | 0.00 | 93 | 1021.8 |
| 20260903032531 | 61 | 197 | 3.0 | 6.0 | 0.00 | 0.00 | 0.00 | 94 | 1021.8 |
| 20260903031144 | 61 | 207 | 3.0 | 5.0 | 0.00 | 0.00 | 0.00 | 93 | 1021.8 |
| 20260903030531 | 61 | 205 | 2.0 | 3.0 | 0.00 | 0.00 | 0.00 | 92 | 1021.7 |
| 20260903025531 | 61 | 216 | 2.0 | 4.0 | 0.00 | 0.00 | 0.00 | 93 | 1021.7 |
| 20260903024531 | 61 | 210 | 3.0 | 5.0 | 0.00 | 0.00 | 0.00 | 93 | 1021.7 |
| 20260903023531 | 62 | 220 | 3.0 | 6.0 | 0.00 | 0.00 | 0.00 | 91 | 1021.7 |
| 20260903022531 | 62 | 219 | 3.0 | 5.0 | 0.00 | 0.00 | 0.00 | 91 | 1021.7 |
| 20260903021143 | 62 | 235 | 3.0 | 6.0 | 0.00 | 0.00 | 0.00 | 90 | 1021.8 |
| 20260903020531 | 62 | 235 | 4.0 | 6.0 | 0.00 | 0.00 | 0.00 | 91 | 1021.9 |
| 20260903015531 | 62 | 223 | 4.0 | 7.0 | 0.00 | 0.00 | 0.00 | 91 | 1021.9 |
| 20260903014143 | 62 | 219 | 4.0 | 6.0 | 0.00 | 0.00 | 0.00 | 91 | 1021.9 |
| 20260903013530 | 61 | 193 | 2.0 | 5.0 | 0.00 | 0.00 | 0.00 | 92 | 1021.8 |
| 20260903012530 | 62 | 235 | 3.0 | 5.0 | 0.00 | 0.00 | 0.00 | 90 | 1021.8 |
| 20260903011144 | 62 | 230 | 4.0 | 6.0 | 0.00 | 0.00 | 0.00 | 89 | 1021.6 |
| 20260903010531 | 62 | 230 | 4.0 | 6.0 | 0.00 | 0.00 | 0.00 | 90 | 1021.6 |
| 20260903005531 | 62 | 207 | 3.0 | 6.0 | 0.00 | 0.00 | 0.00 | 89 | 1021.6 |
| 20260903004144 | 62 | 198 | 3.0 | 4.0 | 0.00 | 0.00 | 0.00 | 89 | 1021.7 |
| 20260903003531 | 63 | 219 | 2.0 | 5.0 | 0.00 | 0.00 | 0.00 | 87 | 1021.6 |
| 20260903002531 | 63 | 196 | 2.0 | 4.0 | 0.00 | 0.00 | 0.00 | 87 | 1021.6 |
| 20260903001543 | 63 | 239 | 3.0 | 6.0 | 0.00 | 0.00 | 0.00 | 86 | 1021.7 |
| 20260903000530 | 63 | 219 | 2.0 | 4.0 | 0.00 | 0.00 | 0.00 | 88 | 1021.7 |
| 20260902235530 | 63 | 252 | 3.0 | 6.0 | 0.00 | 0.00 | 0.00 | 87 | 1021.7 |
| 20260902234144 | 62 | 218 | 4.0 | 6.0 | 0.00 | 0.00 | 0.00 | 89 | 1021.8 |
| 20260902233530 | 62 | 207 | 3.0 | 6.0 | 0.00 | 0.00 | 0.00 | 89 | 1021.7 |
| 20260902232530 | 63 | 210 | 3.0 | 6.0 | 0.00 | 0.00 | 0.00 | 87 | 1021.6 |
| 20260902231531 | 63 | 219 | 3.0 | 6.0 | 0.00 | 0.00 | 0.00 | 87 | 1021.6 |
| 20260902230530 | 63 | 215 | 4.0 | 6.0 | 0.00 | 0.00 | 0.00 | 85 | 1021.4 |
| 20260902225531 | 64 | 201 | 3.0 | 6.0 | 0.00 | 0.00 | 0.00 | 84 | 1021.5 |
| 20260902224144 | 64 | 224 | 3.0 | 7.0 | 0.00 | 0.00 | 0.00 | 84 | 1021.3 |
| 20260902223531 | 64 | 216 | 6.0 | 9.0 | 0.00 | 0.00 | 0.00 | 84 | 1021.1 |
| 20260902222531 | 65 | 240 | 6.0 | 11.0 | 0.00 | 0.00 | 0.00 | 85 | 1021.0 |
| 20260902221144 | 65 | 246 | 6.0 | 11.0 | 0.00 | 0.00 | 0.00 | 85 | 1020.9 |
| 20260902220530 | 65 | 242 | 6.0 | 13.0 | 0.00 | 0.09 | 0.00 | 85 | 1020.7 |
| 20260902215530 | 65 | 233 | 5.0 | 12.0 | 0.00 | 0.19 | 0.00 | 85 | 1020.9 |
| 20260902214144 | 64 | 216 | 6.0 | 10.0 | 0.00 | 0.21 | 0.00 | 84 | 1020.8 |
| 20260902213530 | 65 | 232 | 6.0 | 11.0 | 0.00 | 0.21 | 0.00 | 83 | 1020.6 |
| 20260902211144 | 66 | 283 | 3.0 | 10.0 | 0.00 | 0.21 | 0.00 | 81 | 1020.3 |
| 20260902210531 | 65 | 241 | 2.0 | 5.0 | 0.00 | 0.21 | 0.00 | 80 | 1020.3 |
| 20260902205531 | 65 | 68 | 1.0 | 7.0 | 0.00 | 0.21 | 0.00 | 80 | 1020.3 |
| 20260902204145 | 65 | 200 | 5.0 | 9.0 | 0.00 | 0.21 | 0.00 | 82 | 1020.3 |
| 20260902203530 | 66 | 198 | 6.0 | 11.0 | 0.00 | 0.21 | 0.00 | 83 | 1020.0 |
| 20260902202531 | 67 | 231 | 6.0 | 12.0 | 0.00 | 0.21 | 0.00 | 79 | 1020.2 |
| 20260902201144 | 67 | 269 | 6.0 | 15.0 | 0.00 | 0.21 | 0.00 | 74 | 1020.0 |
| 20260902200531 | 67 | 262 | 4.0 | 13.0 | 0.00 | 0.21 | 0.00 | 79 | 1020.1 |
| 20260902195531 | 66 | 206 | 3.0 | 5.0 | 0.00 | 0.21 | 0.00 | 88 | 1020.1 |
| 20260902194144 | 67 | 209 | 2.0 | 5.0 | 0.00 | 0.21 | 0.00 | 86 | 1020.0 |
| 20260902193531 | 68 | 171 | 3.0 | 4.0 | 0.00 | 0.21 | 0.00 | 88 | 1019.8 |
| 20260902192530 | 69 | 73 | 3.0 | 6.0 | 0.00 | 0.21 | 0.00 | 84 | 1019.6 |
| 20260902191144 | 70 | 13 | 3.0 | 7.0 | 0.00 | 0.21 | 0.00 | 81 | 1019.4 |
| 20260902190530 | 69 | 249 | 2.0 | 5.0 | 0.00 | 0.21 | 0.00 | 84 | 1019.4 |
| 20260902185531 | 70 | 185 | 2.0 | 4.0 | 0.00 | 0.21 | 0.00 | 82 | 1019.4 |
| 20260902184144 | 70 | 195 | 3.0 | 4.0 | 0.00 | 0.21 | 0.00 | 80 | 1018.9 |
| 20260902183531 | 70 | 196 | 4.0 | 9.0 | 0.00 | 0.21 | 0.00 | 81 | 1018.7 |
| 20260902182531 | 71 | 205 | 3.0 | 6.0 | 0.00 | 0.21 | 0.00 | 80 | 1018.7 |
| 20260902181144 | 72 | 127 | 1.0 | 3.0 | 0.00 | 0.21 | 0.00 | 75 | 1018.3 |
| 20260902180531 | 73 | 237 | 3.0 | 4.0 | 0.00 | 0.21 | 0.00 | 69 | 1018.3 |
| 20260902175531 | 73 | 173 | 2.0 | 4.0 | 0.00 | 0.21 | 0.00 | 67 | 1018.1 |
| 20260902174144 | 73 | 85 | 2.0 | 6.0 | 0.00 | 0.21 | 0.00 | 67 | 1018.1 |
| 20260902173530 | 73 | 52 | 4.0 | 6.0 | 0.00 | 0.21 | 0.00 | 66 | 1017.9 |
| 20260902172531 | 73 | 99 | 2.0 | 5.0 | 0.00 | 0.21 | 0.00 | 67 | 1017.6 |
| 20260902171144 | 74 | 55 | 4.0 | 8.0 | 0.00 | 0.21 | 0.00 | 66 | 1017.6 |
| 20260902170531 | 74 | 55 | 5.0 | 9.0 | 0.00 | 0.21 | 0.00 | 65 | 1017.4 |
| 20260902165531 | 75 | 90 | 4.0 | 10.0 | 0.00 | 0.21 | 0.00 | 62 | 1016.9 |
| 20260902164144 | 75 | 97 | 4.0 | 9.0 | 0.00 | 0.21 | 0.00 | 63 | 1017.1 |
| 20260902163531 | 75 | 125 | 5.0 | 9.0 | 0.00 | 0.21 | 0.00 | 62 | 1017.0 |
| 20260902162531 | 75 | 127 | 6.0 | 11.0 | 0.00 | 0.21 | 0.00 | 63 | 1016.9 |
| 20260902161144 | 76 | 130 | 5.0 | 11.0 | 0.00 | 0.21 | 0.00 | 64 | 1016.9 |
| 20260902160530 | 76 | 111 | 4.0 | 9.0 | 0.00 | 0.21 | 0.00 | 63 | 1017.0 |
| 20260902155531 | 76 | 132 | 5.0 | 9.0 | 0.00 | 0.21 | 0.00 | 63 | 1016.9 |
| 20260902154144 | 76 | 136 | 5.0 | 10.0 | 0.00 | 0.21 | 0.00 | 63 | 1016.9 |
| 20260902153531 | 76 | 141 | 5.0 | 9.0 | 0.00 | 0.21 | 0.00 | 60 | 1016.9 |
| 20260902152530 | 77 | 137 | 5.0 | 10.0 | 0.00 | 0.21 | 0.00 | 62 | 1016.8 |
| 20260902151144 | 77 | 127 | 5.0 | 8.0 | 0.00 | 0.21 | 0.00 | 61 | 1016.9 |
| 20260902150531 | 76 | 142 | 4.0 | 8.0 | 0.00 | 0.21 | 0.00 | 63 | 1017.0 |
| 20260902145531 | 76 | 134 | 4.0 | 8.0 | 0.00 | 0.21 | 0.00 | 61 | 1017.1 |
| 20260902144144 | 76 | 139 | 5.0 | 8.0 | 0.00 | 0.21 | 0.00 | 62 | 1017.1 |
| 20260902143530 | 75 | 127 | 4.0 | 9.0 | 0.00 | 0.21 | 0.00 | 62 | 1017.4 |
| 20260902142531 | 76 | 129 | 5.0 | 10.0 | 0.00 | 0.21 | 0.00 | 59 | 1017.3 |
| 20260902141144 | 76 | 124 | 5.0 | 9.0 | 0.00 | 0.21 | 0.00 | 59 | 1017.4 |
| 20260902140531 | 76 | 116 | 5.0 | 9.0 | 0.00 | 0.21 | 0.00 | 58 | 1017.6 |
| 20260902135531 | 76 | 117 | 5.0 | 9.0 | 0.00 | 0.21 | 0.00 | 59 | 1017.7 |
| 20260902134143 | 76 | 129 | 4.0 | 8.0 | 0.00 | 0.21 | 0.00 | 57 | 1017.6 |
| 20260902133531 | 76 | 122 | 5.0 | 9.0 | 0.00 | 0.21 | 0.00 | 57 | 1017.7 |
| 20260902132531 | 77 | 130 | 5.0 | 9.0 | 0.00 | 0.21 | 0.00 | 57 | 1017.7 |
| 20260902131144 | 76 | 140 | 4.0 | 9.0 | 0.00 | 0.21 | 0.00 | 58 | 1018.0 |
| 20260902130531 | 77 | 140 | 4.0 | 8.0 | 0.00 | 0.21 | 0.00 | 55 | 1018.1 |
| 20260902125531 | 77 | 139 | 3.0 | 8.0 | 0.00 | 0.21 | 0.00 | 56 | 1018.2 |
| 20260902124143 | 76 | 141 | 3.0 | 10.0 | 0.00 | 0.21 | 0.00 | 58 | 1018.5 |
| 20260902123531 | 76 | 143 | 3.0 | 7.0 | 0.00 | 0.21 | 0.00 | 59 | 1018.8 |
| 20260902122531 | 75 | 134 | 4.0 | 8.0 | 0.00 | 0.21 | 0.00 | 57 | 1018.9 |
| 20260902121144 | 75 | 159 | 3.0 | 6.0 | 0.00 | 0.21 | 0.00 | 57 | 1019.1 |
| 20260902120530 | 74 | 147 | 5.0 | 8.0 | 0.00 | 0.21 | 0.00 | 57 | 1019.2 |
| 20260902115530 | 75 | 145 | 4.0 | 10.0 | 0.00 | 0.21 | 0.00 | 60 | 1019.2 |
| 20260902114144 | 75 | 156 | 4.0 | 9.0 | 0.00 | 0.21 | 0.00 | 63 | 1019.4 |
| 20260902113531 | 74 | 139 | 4.0 | 8.0 | 0.00 | 0.21 | 0.00 | 61 | 1019.7 |
| 20260902112531 | 74 | 122 | 3.0 | 7.0 | 0.00 | 0.21 | 0.00 | 64 | 1020.0 |
| 20260902111144 | 74 | 167 | 3.0 | 8.0 | 0.00 | 0.21 | 0.00 | 60 | 1020.1 |
| 20260902110531 | 73 | 131 | 4.0 | 8.0 | 0.00 | 0.21 | 0.00 | 62 | 1020.3 |
| 20260902105530 | 73 | 134 | 1.0 | 7.0 | 0.00 | 0.21 | 0.00 | 66 | 1020.5 |